Clermont County, Batavia, OH

4:29 PM EST on December 06, 2019 (GMT -0500)
Clermont County, Batavia

Weather History for KI69 - September, 2019

Change the Weather History Date:

Thursday, September 26, 2019

  Actual Average (KLUK) Record (KLUK)
Temperature  
Mean Temperature 67 °F -  
Max Temperature 79 °F 74 °F 91 °F (1998)
Min Temperature 55 °F 53 °F 36 °F (1950)
Cooling Degree Days 2    
Growing Degree Days 17 (Base 50)    
Moisture  
Dew Point 53 °F    
Average Humidity 56    
Maximum Humidity 78    
Minimum Humidity 28    
Precipitation  
Precipitation 0.00 in - - ()
Sea Level Pressure  
Sea Level Pressure 29.93 in    
Wind  
Wind Speed 4 mph (WNW)    
Max Wind Speed 12 mph    
Max Gust Speed 17 mph    
Visibility 10 miles    
Events      
Averages and records for this station are not official NWS values.
T = Trace of Precipitation, MM = Missing Value Source: NWS Daily Summary

Daily Weather History Graph

Daily Weather History Graph

Search for Another Location

Airport or City:

Astronomy

Sep. 26, 2019 Rise Set
Actual Time 7:27 AM EDT 7:27 PM EDT
Civil Twilight 7:01 AM EDT 7:54 PM EDT
Nautical Twilight 6:30 AM EDT 8:25 PM EDT
Astronomical Twilight 5:58 AM EDT 8:56 PM EDT
Moon 4:35 AM EDT (9/26) 6:38 PM EDT (9/26)
Length of Visible Light 12h 53m
Length of Day
11h 59m
Waning Crescent, 7% of the Moon is Illuminated
Sep 26
Waning Crescent
Sep 28
New
Oct 5
First Quarter
Oct 13
Full
Oct 21
Last Quarter

Hourly Weather History & Observations

Time (EDT) Temp. Dew Point Humidity Pressure Visibility Wind Dir Wind Speed Gust Speed Precip Events Conditions
12:15 AM 72.9 °F 56.5 °F 56% 29.86 in 10.0 mi Calm Calm - N/A   Mostly Cloudy
12:35 AM 71.2 °F 56.5 °F 60% 29.85 in 10.0 mi South 3.5 mph - N/A   Scattered Clouds
12:56 AM 70.9 °F 56.7 °F 61% 29.85 in 10.0 mi Calm Calm - N/A   Clear
1:19 AM 70.9 °F 57.4 °F 62% 29.84 in 10.0 mi Calm Calm - N/A   Scattered Clouds
1:37 AM 70.2 °F 57.7 °F 65% 29.84 in 10.0 mi Calm Calm - N/A   Clear
1:55 AM 70.2 °F 58.1 °F 65% 29.84 in 10.0 mi SW 3.5 mph - N/A   Clear
2:15 AM 70.0 °F 59.0 °F 68% 29.84 in 10.0 mi WSW 4.6 mph - N/A   Mostly Cloudy
2:35 AM 70.0 °F 59.5 °F 69% 29.84 in 10.0 mi WSW 3.5 mph - N/A   Overcast
2:59 AM 70.7 °F 60.1 °F 69% 29.84 in 10.0 mi SW 4.6 mph - N/A   Overcast
3:17 AM 70.7 °F 60.8 °F 71% 29.83 in 10.0 mi SW 5.8 mph - N/A   Overcast
3:35 AM 70.2 °F 61.2 °F 73% 29.82 in 10.0 mi WSW 5.8 mph - N/A   Overcast
3:55 AM 69.8 °F 61.3 °F 74% 29.82 in 10.0 mi WSW 4.6 mph - N/A   Scattered Clouds
4:15 AM 69.8 °F 61.9 °F 76% 29.83 in 10.0 mi WSW 5.8 mph - N/A   Mostly Cloudy
4:38 AM 69.8 °F 62.6 °F 78% 29.83 in 10.0 mi Calm Calm - N/A   Overcast
4:57 AM 70.0 °F 62.6 °F 77% 29.84 in 10.0 mi WSW 3.5 mph - N/A   Overcast
5:15 AM 69.8 °F 62.8 °F 78% 29.85 in 10.0 mi WSW 4.6 mph - N/A   Overcast
5:35 AM 70.0 °F 63.0 °F 78% 29.85 in 10.0 mi WNW 4.6 mph - N/A   Overcast
5:55 AM 70.9 °F 63.1 °F 76% 29.86 in 10.0 mi West 4.6 mph - N/A   Overcast
6:18 AM 70.9 °F 63.5 °F 77% 29.87 in 10.0 mi West 5.8 mph - N/A   Overcast
6:36 AM 71.1 °F 63.5 °F 77% 29.88 in 10.0 mi West 6.9 mph - N/A   Overcast
6:55 AM 70.9 °F 62.8 °F 75% 29.88 in 10.0 mi West 4.6 mph - N/A   Overcast
7:15 AM 70.7 °F 61.7 °F 73% 29.89 in 10.0 mi NW 5.8 mph - N/A   Overcast
7:35 AM 69.8 °F 61.0 °F 73% 29.90 in 10.0 mi NNW 5.8 mph - N/A   Overcast
7:58 AM 69.3 °F 60.8 °F 74% 29.91 in 10.0 mi NW 4.6 mph - N/A   Overcast
8:16 AM 69.3 °F 60.8 °F 74% 29.91 in 10.0 mi NW 4.6 mph - N/A   Overcast
8:35 AM 69.3 °F 60.3 °F 73% 29.91 in 10.0 mi Calm Calm - N/A   Overcast
8:55 AM 69.3 °F 60.6 °F 74% 29.92 in 10.0 mi WNW 4.6 mph - N/A   Overcast
9:15 AM 69.4 °F 59.5 °F 71% 29.92 in 10.0 mi NW 5.8 mph - N/A   Scattered Clouds
9:28 AM 70.7 °F 58.3 °F 65% 29.94 in 10.0 mi NW 4.6 mph - N/A   Clear
9:35 AM 71.2 °F 57.6 °F 62% 29.95 in 10.0 mi NNW 8.1 mph - N/A   Clear
9:55 AM 71.2 °F 56.8 °F 60% 29.95 in 10.0 mi NNW 10.4 mph - N/A   Clear
10:18 AM 71.6 °F 56.5 °F 59% 29.96 in 10.0 mi NNW 8.1 mph - N/A   Clear
10:37 AM 71.6 °F 57.0 °F 60% 29.97 in 10.0 mi NNW 9.2 mph - N/A   Clear
10:55 AM 71.6 °F 55.4 °F 57% 29.98 in 10.0 mi North 10.4 mph - N/A   Clear
11:15 AM 72.0 °F 55.8 °F 57% 29.98 in 10.0 mi NW 11.5 mph - N/A   Clear
11:35 AM 72.0 °F 55.2 °F 55% 29.98 in 10.0 mi NNW 9.2 mph - N/A   Clear
11:58 AM 71.8 °F 54.7 °F 55% 29.98 in 10.0 mi North 8.1 mph - N/A   Clear
12:16 PM 73.2 °F 54.0 °F 51% 29.98 in 10.0 mi WNW 9.2 mph - N/A   Clear
12:35 PM 73.4 °F 52.9 °F 49% 29.99 in 10.0 mi West 8.1 mph - N/A   Clear
12:55 PM 73.9 °F 54.0 °F 50% 29.98 in 10.0 mi WNW 4.6 mph - N/A   Clear
1:15 PM 75.0 °F 51.4 °F 44% 29.98 in 10.0 mi NW 8.1 mph - N/A   Clear
1:38 PM 75.9 °F 49.5 °F 39% 29.98 in 10.0 mi NNW 8.1 mph - N/A   Clear
2:15 PM 76.6 °F 46.6 °F 34% 29.97 in 10.0 mi West 9.2 mph 16.1 mph N/A   Clear
2:35 PM 77.5 °F 47.5 °F 35% 29.96 in 10.0 mi West 8.1 mph - N/A   Clear
2:55 PM 77.5 °F 44.6 °F 31% 29.96 in 10.0 mi WNW 5.8 mph 17.3 mph N/A   Clear
3:18 PM 78.8 °F 45.1 °F 30% 29.96 in 10.0 mi West 8.1 mph 16.1 mph N/A   Clear
3:36 PM 79.0 °F 45.0 °F 30% 29.95 in 10.0 mi West 10.4 mph - N/A   Clear
3:55 PM 78.1 °F 44.4 °F 30% 29.94 in 10.0 mi West 10.4 mph - N/A   Clear
4:15 PM 78.3 °F 44.6 °F 30% 29.94 in 10.0 mi West 6.9 mph 10.4 mph N/A   Clear
4:35 PM 78.8 °F 45.0 °F 30% 29.94 in 10.0 mi West 6.9 mph - N/A   Clear
4:58 PM 78.8 °F 43.3 °F 28% 29.94 in 10.0 mi West 6.9 mph - N/A   Clear
5:16 PM 78.8 °F 42.8 °F 28% 29.94 in 10.0 mi West 4.6 mph - N/A   Clear
5:35 PM 78.8 °F 43.2 °F 28% 29.94 in 10.0 mi NW 5.8 mph - N/A   Clear
5:55 PM 77.7 °F 44.4 °F 31% 29.94 in 10.0 mi North 8.1 mph - N/A   Clear
6:15 PM 77.0 °F 45.0 °F 32% 29.95 in 10.0 mi NNW 6.9 mph - N/A   Clear
6:38 PM 75.9 °F 43.5 °F 31% 29.96 in 10.0 mi NNW 5.8 mph - N/A   Clear
6:56 PM 74.7 °F 42.1 °F 31% 29.97 in 10.0 mi NNW 5.8 mph - N/A   Clear
7:15 PM 73.4 °F 39.9 °F 30% 29.97 in 10.0 mi NNW 4.6 mph - N/A   Clear
7:35 PM 72.1 °F 39.2 °F 30% 29.97 in 10.0 mi NW 3.5 mph - N/A   Clear
7:59 PM 70.9 °F 39.4 °F 32% 29.98 in 10.0 mi Calm Calm - N/A   Clear
8:18 PM 68.5 °F 42.6 °F 39% 29.98 in 10.0 mi Calm Calm - N/A   Clear
8:36 PM 64.4 °F 45.3 °F 50% 29.99 in 10.0 mi Calm Calm - N/A   Clear
8:55 PM 64.4 °F 45.7 °F 51% 29.99 in 10.0 mi Calm Calm - N/A   Clear
9:15 PM 63.7 °F 45.9 °F 52% 30.00 in 10.0 mi Calm Calm - N/A   Clear
9:39 PM 61.2 °F 46.4 °F 58% 30.01 in 10.0 mi Calm Calm - N/A   Clear
9:57 PM 58.6 °F 47.5 °F 66% 30.01 in 10.0 mi Calm Calm - N/A   Clear
10:16 PM 60.3 °F 46.2 °F 60% 30.01 in 10.0 mi Calm Calm - N/A   Clear
10:35 PM 57.7 °F 47.7 °F 69% 30.01 in 10.0 mi Calm Calm - N/A   Clear
10:55 PM 58.3 °F 47.1 °F 66% 30.01 in 10.0 mi Calm Calm - N/A   Clear
11:19 PM 56.5 °F 47.3 °F 71% 30.02 in 10.0 mi Calm Calm - N/A   Clear
11:38 PM 55.2 °F 47.5 °F 75% 30.01 in 10.0 mi Calm Calm - N/A   Clear
11:56 PM 55.2 °F 47.3 °F 75% 30.01 in 10.0 mi Calm Calm - N/A   Clear